Alva, OK

1:11 AM CST on November 20, 2019 (GMT -0600)
Alva Regional

Weather History for KAVK - October, 2019

Change the Weather History Date:

Sunday, October 13, 2019

  Actual Average Record
Temperature  
Mean Temperature 57 °F -  
Max Temperature 73 °F 79 °F 97 °F (1954)
Min Temperature 41 °F 50 °F 35 °F (1949)
Degree Days  
Heating Degree Days 8    
Growing Degree Days 7 (Base 50)    
Moisture  
Dew Point 36 °F    
Average Humidity 50    
Maximum Humidity 76    
Minimum Humidity 27    
Precipitation  
Precipitation 0.00 in - - ()
Sea Level Pressure  
Sea Level Pressure 29.94 in    
Wind  
Wind Speed 7 mph ()    
Max Wind Speed 12 mph    
Max Gust Speed 17 mph    
Visibility 10.0 miles    
Events      
Averages and records for this station are not official NWS values.
T = Trace of Precipitation, MM = Missing Value Source: Averaged Metar Reports

Daily Weather History Graph

Daily Weather History Graph

Search for Another Location

Airport or City:

Astronomy

Oct. 13, 2019 Rise Set
Actual Time 7:40 AM CDT 7:01 PM CDT
Civil Twilight 7:14 AM CDT 7:27 PM CDT
Nautical Twilight 6:44 AM CDT 7:57 PM CDT
Astronomical Twilight 6:14 AM CDT 8:27 PM CDT
Moon 7:22 PM CDT (10/13) 7:17 AM CDT (10/13)
Length of Visible Light 12h 12m
Length of Day
11h 20m
Full, 100% of the Moon is Illuminated
Oct 13
Full
Oct 13
Full
Oct 21
Last Quarter
Oct 27
New
Nov 4
First Quarter

Hourly Weather History & Observations

Time (CDT) Temp. Windchill Dew Point Humidity Pressure Visibility Wind Dir Wind Speed Gust Speed Precip Events Conditions
12:15 AM 44.6 °F 38.8 °F 32.0 °F 61% 29.95 in 10.0 mi South 11.5 mph - N/A   Scattered Clouds
12:35 AM 44.6 °F 38.8 °F 30.2 °F 57% 29.95 in 10.0 mi South 11.5 mph - N/A   Mostly Cloudy
12:55 AM 44.6 °F 38.8 °F 30.2 °F 57% 29.94 in 10.0 mi South 11.5 mph - N/A   Mostly Cloudy
1:15 AM 42.8 °F 37.0 °F 30.2 °F 61% 29.94 in 10.0 mi South 10.4 mph - N/A   Mostly Cloudy
1:35 AM 42.8 °F 37.5 °F 30.2 °F 61% 29.94 in 10.0 mi South 9.2 mph - N/A   Mostly Cloudy
1:55 AM 42.8 °F 38.0 °F 30.2 °F 61% 29.94 in 10.0 mi South 8.1 mph - N/A   Mostly Cloudy
2:15 AM 42.8 °F 37.5 °F 30.2 °F 61% 29.94 in 10.0 mi South 9.2 mph - N/A   Mostly Cloudy
2:35 AM 41.0 °F 34.3 °F 30.2 °F 65% 29.94 in 10.0 mi South 11.5 mph - N/A   Mostly Cloudy
2:55 AM 41.0 °F 34.3 °F 30.2 °F 65% 29.93 in 10.0 mi South 11.5 mph - N/A   Mostly Cloudy
3:15 AM 41.0 °F 35.2 °F 32.0 °F 70% 29.93 in 10.0 mi South 9.2 mph - N/A   Mostly Cloudy
3:35 AM 41.0 °F 34.7 °F 32.0 °F 70% 29.92 in 10.0 mi South 10.4 mph - N/A   Mostly Cloudy
3:55 AM 41.0 °F 36.4 °F 32.0 °F 70% 29.92 in 10.0 mi South 6.9 mph - N/A   Mostly Cloudy
4:15 AM 41.0 °F 36.4 °F 32.0 °F 70% 29.92 in 10.0 mi South 6.9 mph - N/A   Mostly Cloudy
4:35 AM 41.0 °F - 32.0 °F 70% 29.92 in 10.0 mi Calm Calm - N/A   Scattered Clouds
4:55 AM 42.8 °F - 30.2 °F 61% 29.92 in 10.0 mi Calm Calm - N/A   Mostly Cloudy
5:35 AM 42.8 °F - 30.2 °F 61% 29.92 in 10.0 mi Calm Calm - N/A   Mostly Cloudy
5:55 AM 41.0 °F - 30.2 °F 65% 29.92 in 10.0 mi Calm Calm - N/A   Mostly Cloudy
6:15 AM 41.0 °F 39.0 °F 32.0 °F 70% 29.92 in 10.0 mi NNE 3.5 mph - N/A   Mostly Cloudy
6:35 AM 41.0 °F 38.0 °F 32.0 °F 70% 29.93 in 10.0 mi NNE 4.6 mph - N/A   Mostly Cloudy
6:55 AM 42.8 °F - 30.2 °F 61% 29.93 in 10.0 mi Calm Calm - N/A   Overcast
7:15 AM 41.0 °F - 30.2 °F 65% 29.93 in 10.0 mi Calm Calm - N/A   Scattered Clouds
7:55 AM 42.8 °F - 30.2 °F 61% 29.94 in 10.0 mi Calm Calm - N/A   Clear
8:15 AM 41.0 °F 37.1 °F 32.0 °F 70% 29.94 in 10.0 mi South 5.8 mph - N/A   Clear
8:35 AM 42.8 °F 41.1 °F 35.6 °F 76% 29.95 in 10.0 mi SSE 3.5 mph - N/A   Clear
8:55 AM 46.4 °F 44.3 °F 35.6 °F 66% 29.95 in 10.0 mi SSE 4.6 mph - N/A   Clear
9:35 AM 51.8 °F - 32.0 °F 47% 29.97 in 10.0 mi Variable 3.5 mph - N/A   Clear
9:55 AM 53.6 °F - 32.0 °F 44% 29.97 in 10.0 mi South 5.8 mph - N/A   Clear
10:35 AM 57.2 °F - 32.0 °F 38% 29.98 in 10.0 mi Variable 5.8 mph - N/A   Clear
10:55 AM 59.0 °F - 33.8 °F 39% 29.99 in 10.0 mi Variable 3.5 mph - N/A   Clear
11:15 AM 60.8 °F - 33.8 °F 36% 29.99 in 10.0 mi Calm Calm - N/A   Clear
11:35 AM 60.8 °F - 33.8 °F 36% 29.99 in 10.0 mi South 4.6 mph - N/A   Clear
11:55 AM 62.6 °F - 33.8 °F 34% 29.98 in 10.0 mi Variable 5.8 mph - N/A   Clear
12:15 PM 64.4 °F - 33.8 °F 32% 29.98 in 10.0 mi SSE 5.8 mph - N/A   Clear
12:35 PM 66.2 °F - 33.8 °F 30% 29.97 in 10.0 mi Variable 5.8 mph - N/A   Clear
12:55 PM 68.0 °F - 35.6 °F 30% 29.97 in 10.0 mi Calm Calm - N/A   Clear
1:15 PM 68.0 °F - 35.6 °F 30% 29.96 in 10.0 mi Variable 4.6 mph - N/A   Clear
1:35 PM 68.0 °F - 35.6 °F 30% 29.96 in 10.0 mi Calm Calm - N/A   Clear
1:55 PM 69.8 °F - 37.4 °F 31% 29.95 in 10.0 mi ESE 8.1 mph - N/A   Clear
2:15 PM 69.8 °F - 37.4 °F 31% 29.94 in 10.0 mi East 5.8 mph - N/A   Clear
2:35 PM 71.6 °F - 37.4 °F 29% 29.93 in 10.0 mi Variable 6.9 mph - N/A   Clear
2:55 PM 71.6 °F - 39.2 °F 31% 29.93 in 10.0 mi East 8.1 mph - N/A   Clear
3:15 PM 71.6 °F - 37.4 °F 29% 29.92 in 10.0 mi East 6.9 mph - N/A   Clear
3:35 PM 73.4 °F - 37.4 °F 27% 29.91 in 10.0 mi ESE 10.4 mph - N/A   Clear
3:55 PM 73.4 °F - 37.4 °F 27% 29.91 in 10.0 mi ESE 10.4 mph 17.3 mph N/A   Clear
4:15 PM 73.4 °F - 39.2 °F 29% 29.91 in 10.0 mi East 10.4 mph - N/A   Clear
4:55 PM 73.4 °F - 41.0 °F 31% 29.91 in 10.0 mi East 10.4 mph - N/A   Clear
5:15 PM 73.4 °F - 41.0 °F 31% 29.91 in 10.0 mi East 8.1 mph 15.0 mph N/A   Clear
5:35 PM 73.4 °F - 41.0 °F 31% 29.92 in 10.0 mi East 10.4 mph - N/A   Clear
5:55 PM 71.6 °F - 41.0 °F 33% 29.92 in 10.0 mi East 8.1 mph - N/A   Clear
6:15 PM 71.6 °F - 41.0 °F 33% 29.92 in 10.0 mi East 6.9 mph - N/A   Clear
6:35 PM 69.8 °F - 41.0 °F 35% 29.92 in 10.0 mi ENE 6.9 mph - N/A   Clear
6:55 PM 66.2 °F - 42.8 °F 43% 29.93 in 10.0 mi NE 6.9 mph - N/A   Clear
7:15 PM 64.4 °F - 42.8 °F 45% 29.93 in 10.0 mi ENE 6.9 mph - N/A   Clear
7:35 PM 64.4 °F - 42.8 °F 45% 29.94 in 10.0 mi ENE 8.1 mph - N/A   Clear
7:55 PM 64.4 °F - 42.8 °F 45% 29.94 in 10.0 mi East 6.9 mph - N/A   Clear
8:15 PM 60.8 °F - 42.8 °F 52% 29.95 in 10.0 mi East 5.8 mph - N/A   Clear
8:35 PM 60.8 °F - 42.8 °F 52% 29.95 in 10.0 mi ENE 6.9 mph - N/A   Partly Cloudy
8:55 PM 60.8 °F - 42.8 °F 52% 29.95 in 10.0 mi East 6.9 mph - N/A   Clear
9:15 PM 59.0 °F - 44.6 °F 59% 29.96 in 10.0 mi East 8.1 mph - N/A   Clear
9:35 PM 59.0 °F - 44.6 °F 59% 29.96 in 10.0 mi ENE 5.8 mph - N/A   Clear
9:55 PM 59.0 °F - 42.8 °F 55% 29.96 in 10.0 mi East 6.9 mph - N/A   Clear
10:15 PM 59.0 °F - 42.8 °F 55% 29.96 in 10.0 mi ESE 6.9 mph - N/A   Clear
10:35 PM 57.2 °F - 42.8 °F 59% 29.97 in 10.0 mi SE 5.8 mph - N/A   Clear
10:55 PM 57.2 °F - 42.8 °F 59% 29.97 in 10.0 mi ESE 5.8 mph - N/A   Partly Cloudy
11:15 PM 57.2 °F - 42.8 °F 59% 29.98 in 10.0 mi ESE 5.8 mph - N/A   Partly Cloudy
11:35 PM 55.4 °F - 42.8 °F 63% 29.98 in 10.0 mi East 4.6 mph - N/A   Mostly Cloudy
11:55 PM 53.6 °F - 42.8 °F 67% 29.97 in 10.0 mi East 5.8 mph - N/A   Mostly Cloudy